Temp
-9 -8 -8 -8 -7 -7 -7 -6 -6 -6 -6 -6 -5 -5 -5 -5 -5 -5 -5 -5 -4 -4 -4 -4 -4 -4 -5 -6 -6 -6 -7 -8 -9 -9 -9 -9 -9 -8 -9 -9 -9 -9 -8 -8 -8
-9 -9 -8 -8 -8 -7 -7 -6 -6 -6 -6 -6 -5 -5 -5 -5 -5 -5 -5 -5 -5 -5 -5 -5 -5 -5 -5 -6 -6 -6 -7 -9 -9 -8 -9 -9 -8 -8 -9 -9 -9 -9 -9 -9 -9
-10 -9 -9 -8 -8 -7 -7 -6 -6 -6 -6 -6 -5 -5 -6 -5 -5 -5 -5 -5 -5 -5 -5 -5 -5 -5 -5 -6 -6 -6 -6 -7 -6 -7 -7 -8 -9 -9 -9 -10 -10 -10 -10 -10 -10
-10 -10 -9 -9 -8 -7 -7 -7 -7 -7 -6 -6 -6 -6 -6 -6 -6 -5 -5 -5 -5 -5 -5 -5 -5 -5 -6 -6 -6 -6 -6 -6 -6 -6 -7 -8 -9 -10 -10 -10 -10 -11 -11 -11 -10
-11 -10 -9 -9 -8 -7 -7 -7 -7 -6 -6 -6 -6 -6 -6 -6 -6 -6 -6 -6 -6 -6 -6 -6 -6 -6 -6 -6 -6 -6 -6 -6 -7 -7 -6 -7 -9 -10 -10 -11 -10 -10 -11 -11 -10
-11 -10 -9 -9 -8 -8 -8 -7 -7 -7 -7 -7 -7 -7 -6 -6 -6 -6 -6 -6 -6 -6 -6 -6 -6 -6 -6 -6 -7 -7 -7 -7 -7 -7 -7 -7 -9 -9 -11 -10 -10 -11 -10 -10 -11
-11 -10 -10 -9 -9 -8 -8 -7 -7 -7 -7 -7 -7 -7 -6 -6 -6 -6 -6 -6 -6 -6 -6 -6 -6 -7 -7 -7 -7 -8 -8 -8 -8 -8 -8 -8 -9 -11 -11 -10 -11 -11 -11 -11 -11
-10 -10 -10 -9 -9 -9 -8 -8 -8 -7 -7 -7 -7 -7 -7 -7 -6 -6 -6 -6 -6 -6 -6 -6 -7 -7 -7 -7 -8 -8 -8 -10 -9 -9 -8 -9 -10 -10 -11 -11 -11 -11 -11 -11 -11
-11 -10 -10 -10 -9 -8 -8 -8 -8 -8 -7 -7 -7 -7 -7 -7 -7 -6 -6 -6 -6 -6 -7 -7 -7 -7 -7 -8 -8 -9 -9 -10 -11 -9 -9 -10 -10 -10 -10 -10 -11 -12 -11 -11 -11
-11 -10 -10 -10 -9 -9 -8 -8 -8 -8 -8 -7 -7 -7 -7 -7 -7 -6 -6 -6 -6 -7 -7 -7 -7 -7 -7 -9 -9 -10 -10 -10 -10 -11 -11 -11 -11 -10 -10 -10 -11 -11 -11 -11 -12
-11 -11 -10 -10 -9 -9 -9 -9 -8 -8 -8 -8 -7 -7 -7 -7 -7 -7 -6 -7 -7 -7 -7 -7 -8 -11 -10 -9 -9 -9 -10 -10 -11 -10 -11 -11 -11 -10 -10 -11 -11 -11 -11 -11 -11
-11 -11 -10 -10 -9 -9 -9 -9 -9 -8 -8 -8 -8 -8 -7 -7 -7 -7 -7 -7 -7 -7 -8 -8 -10 -8 -8 -9 -9 -10 -11 -11 -10 -10 -10 -11 -12 -11 -11 -11 -11 -11 -11 -11 -11
-11 -10 -10 -10 -9 -9 -9 -9 -9 -9 -8 -8 -8 -8 -8 -7 -7 -7 -7 -8 -8 -8 -8 -11 -9 -8 -8 -8 -11 -11 -11 -11 -11 -11 -10 -11 -11 -11 -11 -10 -10 -11 -11 -11 -11
-11 -10 -10 -10 -10 -10 -9 -9 -9 -9 -9 -8 -8 -8 -8 -8 -7 -7 -8 -8 -8 -8 -9 -10 -8 -8 -9 -11 -10 -11 -9 -10 -11 -11 -11 -10 -10 -11 -10 -11 -10 -11 -11 -11 -11
-11 -11 -10 -10 -10 -10 -10 -9 -9 -9 -10 -9 -8 -8 -8 -8 -8 -8 -8 -8 -8 -9 -9 -10 -9 -8 -11 -10 -9 -10 -10 -10 -10 -11 -11 -11 -10 -11 -11 -11 -10 -10 -11 -11 -11
-11 -11 -11 -10 -10 -10 -10 -10 -10 -10 -11 -9 -8 -8 -8 -8 -8 -8 -8 -8 -8 -8 -9 -9 -9 -9 -10 -9 -9 -9 -10 -10 -10 -11 -10 -11 -10 -11 -11 -12 -11 -10 -11 -11 -11
-11 -11 -11 -11 -10 -10 -10 -10 -10 -10 -10 -9 -9 -9 -9 -8 -9 -9 -9 -9 -9 -9 -9 -9 -9 -9 -9 -9 -9 -9 -10 -10 -10 -10 -10 -10 -10 -11 -11 -11 -10 -10 -10 -11 -11
-11 -11 -11 -11 -11 -11 -10 -10 -10 -11 -10 -9 -9 -9 -9 -9 -9 -9 -9 -9 -9 -9 -11 -12 -11 -10 -9 -9 -11 -11 -10 -10 -10 -10 -10 -10 -10 -11 -10 -11 -10 -10 -10 -10 -11
-12 -11 -11 -11 -11 -11 -11 -10 -11 -12 -11 -10 -10 -10 -10 -9 -11 -10 -10 -12 -9 -9 -11 -12 -12 -10 -10 -9 -9 -12 -11 -10 -10 -10 -10 -10 -11 -11 -11 -11 -11 -11 -11 -11 -11
-12 -11 -11 -11 -11 -11 -11 -11 -11 -10 -10 -10 -10 -10 -11 -11 -10 -10 -12 -12 -10 -10 -10 -12 -12 -10 -9 -10 -10 -10 -9 -11 -11 -11 -10 -10 -11 -11 -11 -11 -11 -11 -11 -11 -11
-12 -12 -12 -11 -11 -11 -11 -11 -11 -10 -10 -10 -11 -12 -12 -13 -12 -12 -12 -11 -10 -10 -10 -10 -10 -12 -10 -10 -12 -10 -11 -10 -10 -11 -11 -11 -11 -11 -11 -12 -12 -13 -13 -11 -11
-12 -12 -12 -12 -12 -12 -11 -11 -10 -11 -11 -11 -11 -10 -11 -13 -13 -13 -13 -13 -10 -11 -11 -11 -10 -12 -12 -10 -10 -10 -11 -11 -10 -12 -12 -11 -10 -12 -11 -12 -11 -12 -12 -11 -11
-13 -12 -12 -12 -12 -12 -12 -11 -11 -11 -11 -11 -11 -11 -11 -11 -12 -13 -13 -11 -11 -11 -11 -11 -11 -11 -12 -11 -11 -11 -11 -10 -11 -10 -11 -11 -12 -12 -11 -11 -11 -11 -11 -11 -11
-13 -13 -13 -12 -12 -12 -12 -12 -11 -11 -11 -11 -11 -11 -11 -11 -11 -11 -11 -11 -11 -11 -11 -11 -11 -11 -12 -12 -12 -12 -11 -11 -11 -11 -11 -12 -13 -13 -12 -11 -11 -11 -11 -11 -11
-14 -14 -12 -12 -13 -13 -12 -12 -12 -11 -11 -11 -11 -11 -12 -12 -12 -12 -12 -11 -12 -11 -11 -11 -11 -11 -11 -11 -12 -11 -12 -12 -11 -11 -11 -11 -11 -12 -13 -13 -12 -11 -11 -11 -11
-14 -13 -13 -13 -13 -13 -12 -12 -12 -12 -12 -12 -12 -12 -12 -12 -12 -12 -13 -12 -12 -11 -11 -11 -11 -11 -11 -10 -11 -11 -10 -11 -11 -11 -11 -11 -11 -11 -12 -12 -11 -11 -11 -11 -12
-14 -14 -14 -13 -13 -13 -13 -13 -13 -12 -12 -12 -12 -12 -12 -12 -11 -11 -12 -12 -12 -12 -11 -11 -11 -11 -11 -11 -11 -11 -11 -11 -11 -11 -12 -12 -12 -12 -12 -12 -11 -11 -11 -12 -12
Height
5871 5873 5875 5878 5879 5880 5882 5882 5883 5884 5884 5885 5886 5888 5889 5890 5891 5892 5893 5894 5894 5895 5895 5895 5895 5895 5894 5895 5897 5898 5901 5904 5910 5908 5908 5901 5906 5900 5900 5900 5899 5898 5898 5897 5896
5867 5870 5872 5874 5875 5877 5878 5879 5880 5881 5881 5882 5884 5886 5886 5888 5890 5891 5893 5893 5894 5894 5895 5895 5895 5894 5895 5895 5897 5898 5901 5906 5906 5904 5903 5901 5902 5901 5901 5900 5899 5898 5897 5897 5895
5863 5866 5868 5869 5872 5873 5874 5875 5876 5877 5878 5880 5882 5884 5885 5886 5888 5889 5891 5892 5893 5894 5894 5895 5895 5894 5895 5895 5897 5898 5899 5901 5900 5900 5900 5900 5900 5900 5901 5903 5901 5898 5897 5895 5893
5860 5863 5864 5866 5868 5869 5870 5872 5874 5875 5876 5878 5879 5881 5883 5885 5888 5888 5890 5891 5892 5893 5895 5894 5895 5894 5895 5895 5896 5897 5897 5898 5898 5898 5897 5897 5898 5899 5900 5900 5897 5895 5893 5892 5890
5857 5859 5862 5864 5865 5866 5867 5869 5871 5872 5874 5876 5877 5879 5881 5884 5885 5887 5888 5890 5891 5893 5893 5894 5893 5893 5894 5894 5894 5894 5894 5895 5896 5895 5895 5894 5896 5898 5899 5898 5896 5894 5891 5890 5890
5853 5856 5859 5861 5862 5863 5866 5867 5868 5870 5872 5874 5877 5878 5880 5882 5883 5885 5886 5888 5890 5891 5892 5893 5892 5892 5893 5892 5892 5892 5891 5891 5892 5892 5892 5892 5892 5893 5896 5895 5895 5893 5891 5890 5889
5849 5853 5856 5857 5859 5862 5863 5864 5866 5868 5870 5874 5876 5877 5878 5881 5882 5884 5885 5887 5888 5889 5890 5891 5891 5891 5890 5890 5890 5889 5888 5888 5889 5889 5889 5890 5890 5891 5893 5892 5893 5891 5890 5888 5887
5845 5849 5852 5854 5857 5860 5861 5863 5864 5866 5869 5872 5874 5875 5877 5879 5881 5883 5884 5885 5886 5887 5888 5888 5888 5888 5888 5888 5888 5887 5887 5889 5885 5886 5886 5887 5892 5894 5887 5889 5890 5890 5887 5887 5885
5841 5846 5849 5852 5855 5857 5858 5860 5862 5864 5867 5870 5872 5873 5876 5879 5880 5881 5882 5883 5884 5884 5885 5885 5886 5885 5886 5886 5886 5887 5895 5894 5887 5885 5885 5886 5893 5888 5884 5886 5887 5885 5884 5886 5884
5838 5842 5846 5849 5852 5853 5855 5858 5860 5862 5866 5868 5870 5872 5874 5876 5878 5879 5880 5881 5882 5882 5883 5883 5883 5884 5884 5886 5896 5893 5893 5891 5891 5886 5885 5887 5887 5882 5882 5882 5880 5880 5881 5882 5882
5835 5839 5843 5846 5848 5851 5854 5856 5860 5862 5863 5867 5868 5870 5872 5874 5876 5877 5878 5879 5880 5880 5881 5882 5883 5889 5887 5885 5886 5886 5888 5891 5885 5882 5886 5884 5882 5878 5878 5877 5878 5879 5879 5879 5879
5831 5835 5839 5843 5846 5848 5851 5854 5856 5859 5861 5864 5865 5868 5869 5872 5874 5875 5876 5878 5878 5878 5880 5883 5884 5884 5883 5883 5881 5882 5886 5887 5882 5880 5881 5881 5879 5876 5876 5876 5876 5875 5876 5876 5876
5829 5832 5836 5839 5843 5844 5848 5852 5854 5856 5859 5862 5864 5865 5868 5870 5872 5872 5874 5875 5876 5878 5880 5883 5883 5882 5881 5878 5881 5883 5887 5884 5885 5878 5879 5880 5879 5865 5872 5872 5872 5872 5872 5873 5872
5825 5828 5833 5837 5839 5841 5846 5849 5852 5855 5857 5860 5861 5863 5866 5868 5869 5870 5870 5873 5874 5877 5879 5881 5880 5880 5878 5881 5882 5886 5880 5879 5878 5878 5883 5877 5880 5873 5868 5869 5869 5868 5868 5868 5869
5821 5825 5829 5833 5836 5839 5844 5847 5849 5853 5855 5858 5859 5861 5863 5865 5867 5867 5869 5870 5873 5875 5878 5879 5878 5877 5881 5879 5880 5879 5878 5877 5877 5876 5878 5879 5879 5872 5871 5869 5866 5865 5864 5864 5864
5816 5820 5825 5829 5834 5836 5840 5844 5847 5852 5851 5854 5856 5858 5859 5861 5863 5864 5866 5868 5871 5873 5875 5875 5875 5875 5876 5876 5878 5878 5878 5877 5876 5879 5880 5878 5877 5865 5859 5866 5863 5862 5860 5860 5860
5811 5816 5821 5824 5830 5833 5836 5841 5845 5848 5848 5851 5853 5855 5856 5858 5860 5861 5863 5866 5869 5871 5872 5873 5873 5871 5873 5874 5875 5875 5876 5880 5879 5879 5875 5875 5875 5869 5866 5862 5863 5861 5859 5858 5857
5806 5811 5815 5818 5825 5829 5832 5838 5840 5843 5845 5848 5850 5852 5854 5855 5856 5858 5861 5864 5866 5869 5874 5873 5873 5870 5870 5872 5875 5874 5874 5879 5881 5880 5874 5874 5876 5869 5866 5865 5862 5859 5857 5855 5854
5801 5805 5810 5814 5820 5824 5828 5832 5836 5839 5842 5845 5847 5850 5852 5853 5855 5856 5859 5863 5863 5866 5870 5872 5872 5867 5867 5869 5871 5872 5872 5872 5874 5876 5877 5877 5871 5867 5863 5862 5859 5857 5855 5853 5852
5795 5799 5804 5808 5814 5818 5822 5828 5829 5833 5838 5841 5844 5848 5850 5851 5853 5855 5857 5859 5859 5862 5863 5865 5867 5864 5863 5865 5867 5867 5867 5870 5872 5874 5875 5873 5870 5870 5860 5860 5857 5855 5853 5851 5850
5789 5794 5799 5803 5808 5812 5818 5822 5824 5828 5832 5837 5841 5844 5848 5850 5850 5853 5858 5853 5855 5857 5859 5860 5862 5864 5861 5862 5866 5864 5865 5865 5866 5867 5868 5870 5870 5864 5860 5858 5857 5855 5852 5849 5847
5782 5786 5792 5796 5803 5807 5812 5813 5820 5824 5827 5830 5835 5838 5841 5847 5847 5851 5853 5850 5851 5852 5854 5854 5856 5858 5861 5857 5859 5860 5861 5860 5861 5865 5863 5861 5863 5858 5856 5854 5852 5852 5848 5845 5844
5775 5779 5787 5790 5796 5801 5803 5809 5813 5816 5821 5824 5829 5832 5835 5838 5841 5844 5846 5844 5846 5847 5849 5849 5851 5853 5856 5857 5854 5852 5853 5855 5854 5854 5856 5856 5859 5849 5848 5849 5846 5846 5844 5840 5837
5769 5774 5779 5783 5788 5793 5797 5802 5806 5810 5814 5818 5822 5825 5830 5832 5834 5836 5835 5839 5840 5841 5844 5844 5846 5848 5852 5854 5847 5846 5849 5848 5847 5847 5848 5849 5850 5849 5840 5838 5837 5837 5836 5835 5830
5761 5764 5770 5777 5781 5786 5789 5795 5799 5804 5808 5811 5815 5820 5822 5825 5828 5829 5830 5832 5833 5835 5837 5838 5840 5842 5843 5843 5842 5843 5842 5842 5840 5840 5838 5842 5839 5840 5837 5833 5829 5828 5827 5825 5823
5752 5757 5763 5768 5774 5779 5783 5787 5793 5795 5802 5805 5808 5812 5815 5818 5820 5824 5823 5824 5826 5827 5829 5831 5833 5833 5834 5835 5833 5833 5837 5835 5834 5833 5831 5830 5829 5829 5826 5825 5821 5820 5818 5817 5814
5744 5750 5755 5760 5766 5771 5776 5780 5783 5786 5794 5796 5802 5803 5809 5807 5813 5816 5817 5818 5820 5820 5823 5823 5826 5826 5825 5826 5823 5824 5828 5826 5825 5824 5822 5820 5820 5817 5815 5813 5812 5810 5808 5806 5804
Wind_Speed
29 28 27 26 23 22 20 18 18 18 16 15 15 16 13 10 9 7 5 3 2 2 2 3 2 2 2 2 4 4 4 4 6 9 14 6 4 8 6 6 5 7 12 9 10
27 28 27 27 24 24 24 22 20 17 18 16 15 16 12 11 9 8 5 4 3 3 3 2 0 1 2 2 3 3 3 4 15 10 10 9 7 6 5 6 5 10 8 10 13
24 25 27 25 23 23 21 20 17 17 17 16 15 14 13 11 11 8 6 5 5 4 3 2 1 3 5 5 5 5 4 7 8 7 6 8 3 5 5 3 5 8 9 13 17
22 22 19 20 20 21 19 17 17 17 17 16 14 14 13 11 9 9 7 7 6 5 3 3 4 6 8 10 10 11 10 9 8 8 8 5 5 6 8 12 14 9 9 12 14
26 22 18 18 17 17 17 18 18 17 16 16 15 14 12 11 9 9 9 8 7 6 5 7 7 9 10 10 12 13 14 13 11 9 10 11 5 7 6 10 14 18 13 15 14
24 21 23 20 14 11 17 18 17 16 15 15 15 14 13 11 9 9 8 8 7 7 6 6 7 9 11 12 14 15 15 14 12 12 12 12 11 8 6 6 11 14 21 17 16
25 24 20 21 20 15 14 16 17 16 15 15 14 14 13 12 11 9 8 8 8 6 7 8 9 10 12 12 13 12 14 13 12 11 11 10 12 12 12 9 9 11 14 17 17
26 23 19 20 23 20 20 17 16 15 15 15 15 14 12 12 11 8 8 8 7 9 10 10 7 7 8 9 10 10 11 2 11 10 12 9 5 12 25 20 12 18 18 17 19
24 26 22 20 20 23 20 17 16 15 16 15 15 13 11 12 10 8 7 8 9 9 9 7 6 6 6 8 11 6 3 8 12 7 10 5 4 21 32 25 19 21 16 17 21
23 25 21 19 20 20 18 18 17 17 16 16 16 13 13 11 10 9 9 8 7 6 6 6 6 5 5 8 4 6 6 6 4 3 5 1 11 24 20 10 10 15 10 15 21
20 26 24 22 21 20 19 18 18 18 17 16 14 14 12 12 11 9 8 8 6 4 4 5 5 6 7 7 11 11 6 7 10 7 2 6 5 8 7 7 9 12 12 16 20
19 22 24 23 24 21 20 18 18 17 16 16 15 13 13 12 10 10 9 7 3 3 1 3 2 6 7 1 5 4 1 6 11 11 6 12 10 12 10 7 7 14 13 11 16
22 23 24 23 23 20 19 19 18 17 16 16 14 13 12 12 11 11 8 5 4 2 2 7 15 5 4 11 7 1 5 10 4 14 7 8 14 15 6 17 11 8 15 18 16
23 24 25 25 23 21 20 19 17 17 17 16 15 13 14 13 12 10 9 7 6 6 6 8 8 5 6 2 7 10 10 7 6 4 9 14 13 27 2 14 17 14 15 17 18
24 25 26 25 23 22 21 19 17 17 10 16 15 14 15 14 11 11 11 9 11 8 7 12 7 1 4 10 4 13 4 5 3 4 7 9 4 21 11 15 12 14 15 19 21
25 25 27 25 24 22 21 20 18 17 18 15 14 14 13 13 13 12 11 12 12 10 11 11 8 8 15 4 5 3 2 12 10 7 5 7 11 27 8 6 15 15 13 13 14
27 27 29 27 25 23 22 21 20 17 23 18 13 12 12 13 13 12 12 11 12 12 10 10 9 7 6 4 7 5 4 8 2 5 14 15 11 20 24 15 15 12 10 10 10
29 29 30 28 28 25 24 23 22 21 17 18 14 14 12 12 13 12 12 12 14 12 9 7 11 10 7 9 17 7 6 6 2 7 12 17 3 14 19 16 12 9 9 10 11
30 30 32 31 29 27 27 25 21 20 22 19 16 13 13 14 13 12 13 11 17 15 14 12 14 13 11 10 11 9 3 12 14 11 8 9 11 24 15 13 13 11 11 11 11
31 32 32 33 31 29 29 27 29 26 21 21 18 16 15 15 15 14 15 18 17 17 17 15 13 14 13 11 13 15 15 6 6 7 7 11 13 11 28 24 18 17 17 15 14
32 32 32 33 34 33 30 28 30 27 25 24 20 18 18 16 17 15 14 23 20 18 17 18 16 14 14 11 9 12 11 15 16 17 11 10 9 14 24 28 20 17 19 18 19
31 33 32 34 34 33 32 34 28 27 28 27 26 24 24 19 21 17 16 24 19 20 18 19 18 16 13 18 16 17 15 19 16 10 10 15 15 26 28 28 22 19 26 28 20
32 36 32 35 34 34 37 32 31 31 31 30 28 28 26 27 25 22 21 25 21 23 23 22 21 21 18 19 21 25 26 22 25 23 22 20 14 30 31 26 28 26 26 27 28
33 35 35 35 36 37 38 34 34 33 34 31 31 31 26 27 26 26 31 24 26 28 26 25 25 24 19 21 23 26 24 26 28 29 26 23 19 23 34 33 30 30 30 29 32
36 37 37 35 35 35 38 36 35 34 35 34 34 31 29 29 28 28 28 27 28 29 31 31 29 29 28 29 33 29 30 28 30 30 31 27 30 28 27 30 36 35 33 32 33
38 39 38 38 35 34 35 36 34 37 34 34 34 33 33 33 33 31 32 32 31 32 33 34 31 33 34 34 35 36 31 31 30 29 32 33 33 31 35 35 38 37 37 36 35
41 39 38 37 36 36 36 35 36 38 34 37 33 37 32 39 34 32 35 35 32 34 32 34 31 33 35 36 40 40 32 33 32 29 31 34 34 36 39 41 41 41 40 38 38
Wind_Direction
229 238 243 244 252 259 260 256 255 260 264 271 267 260 257 239 220 210 198 196 149 130 91 76 48 39 33 312 295 295 269 221 210 237 263 308 162 277 239 247 250 274 288 287 295
239 250 250 250 259 253 257 252 254 257 263 260 256 253 238 224 210 210 212 210 182 151 129 122 132 36 347 320 307 306 269 194 213 248 239 286 301 275 249 267 249 269 245 289 291
246 253 250 249 251 251 248 250 253 261 258 251 247 237 221 212 211 217 227 212 206 201 189 197 266 313 310 310 306 308 263 263 298 291 284 288 302 225 218 353 248 225 257 301 315
243 247 251 248 247 243 247 251 251 244 242 238 226 221 216 214 222 232 232 218 213 230 260 288 311 311 309 315 314 308 304 304 315 313 300 276 240 217 218 212 252 225 315 319 311
231 234 233 238 236 237 245 245 243 237 232 226 216 212 215 222 233 232 217 218 225 250 272 296 305 307 304 306 303 305 304 307 312 306 311 293 251 202 215 245 255 276 310 305 313
223 230 231 226 234 241 244 236 232 225 220 217 215 213 216 222 220 220 221 232 255 278 296 303 307 316 310 309 307 313 315 317 324 319 318 305 288 277 246 203 248 262 279 284 306
226 233 226 227 233 248 260 232 224 215 213 216 215 218 218 217 221 230 245 258 272 282 296 300 309 309 303 307 311 319 322 315 310 317 302 305 297 281 241 286 285 272 281 295 298
230 229 222 225 240 248 252 233 220 212 211 212 216 215 217 217 227 236 247 262 276 288 297 308 308 300 307 307 310 318 333 333 294 317 298 308 276 290 253 284 282 274 290 296 294
230 219 224 236 236 237 237 224 218 215 211 213 216 212 217 224 225 232 246 265 284 299 310 299 302 301 313 324 344 8 91 224 292 327 299 320 166 250 257 273 273 262 298 278 286
215 212 217 222 229 224 222 219 215 212 212 212 216 213 220 223 223 227 250 285 296 297 297 309 306 315 328 40 339 258 220 243 256 308 45 345 252 235 262 276 265 269 287 267 272
218 218 218 235 233 220 222 215 212 214 214 216 219 221 225 226 224 239 271 282 288 288 298 310 337 56 220 271 217 238 193 195 253 282 96 248 260 303 316 299 284 284 282 271 265
223 215 218 218 219 215 215 217 216 215 216 219 220 224 226 230 235 251 265 269 266 278 321 318 222 263 279 265 30 44 12 245 292 307 124 285 276 293 306 293 288 271 265 275 260
222 215 211 212 215 212 213 215 216 219 220 223 225 226 231 233 242 251 254 241 246 204 206 138 248 287 299 36 47 27 152 249 230 293 345 292 264 275 307 320 291 268 261 265 263
224 212 212 216 211 212 215 213 215 221 226 226 226 227 232 239 246 250 237 240 212 198 200 217 236 263 64 263 90 280 296 290 277 298 305 281 262 286 178 312 294 271 261 264 265
224 216 213 216 213 211 214 214 213 219 224 229 229 229 235 241 244 239 233 230 206 204 202 250 253 165 118 240 294 242 335 31 313 261 265 268 299 270 231 283 298 275 267 267 270
222 218 216 215 219 212 212 213 213 217 232 236 233 235 237 242 240 232 228 218 213 212 216 230 224 185 208 275 288 298 44 38 29 10 267 244 272 292 316 319 310 293 284 279 281
222 220 218 216 218 215 214 216 212 209 233 238 234 234 234 235 234 230 221 210 217 220 224 239 241 233 237 257 306 284 22 325 290 262 296 296 300 274 292 322 308 305 308 305 302
224 220 219 218 219 215 214 217 217 216 225 232 237 237 234 229 236 230 226 231 231 216 217 226 280 256 231 230 197 248 224 177 254 244 288 310 319 241 285 300 299 308 306 305 297
227 222 218 218 221 218 218 219 215 221 226 226 228 225 223 227 226 224 230 213 223 217 170 210 233 248 242 249 238 255 269 248 205 244 250 251 274 311 299 297 303 305 304 301 298
230 227 221 219 221 220 222 219 220 228 228 224 225 227 217 225 222 225 224 216 230 222 227 216 207 256 250 250 251 247 261 240 299 278 273 262 296 273 286 297 303 304 302 300 298
230 228 223 221 222 222 224 223 226 225 224 223 219 220 204 221 218 223 215 236 231 233 234 234 230 260 259 262 230 251 280 250 237 229 236 252 267 242 263 280 292 294 290 293 292
227 229 223 223 224 224 223 227 229 228 227 225 226 226 215 204 220 201 216 238 235 238 237 242 243 236 269 259 276 273 262 267 270 260 266 257 254 268 260 274 280 276 277 286 286
226 233 226 226 223 226 227 229 227 226 227 226 227 227 222 220 224 215 222 236 235 238 234 244 249 250 247 286 287 274 276 276 279 279 278 277 275 273 277 277 278 276 273 280 282
227 227 225 225 224 227 228 226 228 227 230 228 228 231 229 229 231 232 238 235 239 244 246 242 244 250 236 229 254 265 274 275 275 280 283 272 268 275 290 289 284 281 284 281 281
229 226 227 225 224 224 228 226 228 229 229 227 230 229 228 231 235 238 242 238 242 246 251 252 252 254 254 255 254 264 268 273 276 284 279 276 271 270 261 266 280 290 289 286 284
227 226 224 224 226 227 227 229 227 231 230 228 229 230 230 233 234 236 244 245 245 247 253 257 262 264 265 270 271 272 268 274 274 275 278 283 279 276 274 276 284 287 289 291 285
227 224 224 223 223 224 227 227 227 232 230 233 230 233 234 236 241 246 249 255 251 256 255 261 264 268 271 270 273 273 280 272 274 276 278 278 281 277 279 282 282 285 287 284 284